Tracking 32139 objects as of 16-Nov-2025
HD Live streaming from Space Station
objects crossing your sky now

ELECTRON KICK STAGE R/B

Track ELECTRON KICK STAGE R/B now!
10-day predictions


NORAD ID: 65117
Int'l Code: 2025-169B
Perigee: 572.4 km
Apogee: 583.6 km
Inclination: 42.0 °
Period: 96.1 minutes
Semi major axis: 6948 km
RCS: Unknown
Launch date: August 5, 2025
Source: United States (US)
Launch site: Rocket Lab Launch Complex (RLLC)

Note: This is a ROCKET BODY
Your satellite tracking list
Your tracking list is empty




NASA's NSSDC Master Catalog

Two Line Element Set (TLE):
1 65117U 25169B   25319.48592691  .00008216  00000-0  68570-3 0  9993
2 65117  42.0103 110.2779 0008064 241.5977 118.4036 14.98720622 15338
Source of the keplerian elements: AFSPC